Lid_Strength_Index
0 3 3 8 12 13 15 12 9 10 10 8 7 7 9 8 9 11 4 3 3 4 2 2 1 1 0 0 -0 -1 -1 -2 -2 -1 -1 -1 -1 -1 -1 -1 -1 -1 -1 -1 -2 -1 -1 -2 -2
2 2 7 10 15 16 15 12 11 9 8 7 6 7 8 9 5 4 4 2 2 3 3 2 2 1 1 1 0 -0 -1 -1 -2 -2 -2 -1 -1 -1 -1 -1 -1 -1 -1 -1 -1 -2 -1 -2 -1
1 3 10 13 16 17 15 12 9 8 7 7 8 7 8 8 5 4 3 2 2 4 3 2 2 2 2 2 1 1 0 -0 -1 -1 -2 -2 -1 -1 -1 -1 -1 -1 -1 -1 -1 -1 -1 -1 -1
6 8 11 15 15 13 13 11 8 8 8 6 8 9 6 4 4 3 2 2 4 5 3 2 3 3 3 2 2 2 1 1 0 -0 -1 -2 -2 -1 -1 -1 -1 -1 -1 -1 -1 -1 -1 -2 -2
8 10 14 15 14 12 12 10 9 9 8 8 7 10 8 4 3 3 3 3 5 6 5 4 3 4 3 3 2 2 2 2 2 1 -0 -1 -1 -1 -1 -1 -1 -1 -1 -1 -1 -1 -1 -1 -2
10 12 15 16 15 11 11 10 10 11 9 9 9 10 7 4 4 4 3 4 5 6 5 4 3 4 4 3 3 3 3 2 2 2 1 0 -0 -1 -1 -1 -1 -1 -1 -1 -1 -1 -1 -1 -1
12 13 15 15 14 13 11 10 11 11 11 10 8 11 7 5 4 5 4 4 4 5 5 5 5 4 3 3 4 4 3 3 3 2 2 1 0 -1 -1 -1 -1 -1 -1 -1 -1 -1 -1 -1 -1
11 13 16 15 14 13 11 10 10 11 11 9 8 11 10 6 5 5 4 5 5 5 5 6 6 6 6 6 3 4 3 3 3 3 3 2 1 -1 -1 -2 -1 -1 -1 -1 -1 -1 -1 -0 -1
10 16 16 15 13 13 10 12 10 9 11 10 8 9 6 5 5 6 6 5 5 4 6 6 6 6 6 6 5 4 4 3 4 4 4 4 4 1 1 -1 -1 -1 -1 -1 -1 -1 -1 -0 -0
13 16 14 13 13 13 12 12 11 11 12 12 11 9 6 6 7 7 7 6 6 6 6 6 7 7 7 5 7 7 7 7 7 7 7 6 5 2 1 1 -0 -1 -1 -1 -1 -1 -0 0 0
13 15 13 12 11 11 12 12 11 13 13 12 12 10 8 8 8 7 7 7 6 6 6 6 6 7 7 7 7 8 8 8 8 8 7 7 5 3 2 1 -1 -1 1 -0 -0 0 0 1 0
15 12 12 11 11 11 12 12 12 12 12 11 11 10 9 8 8 8 8 7 7 7 7 6 6 7 7 8 8 8 8 8 8 8 7 7 7 5 3 2 1 -0 -0 -0 0 0 0 0 0
14 13 12 11 11 12 11 13 13 13 11 11 10 9 10 9 9 8 7 7 7 7 7 6 7 7 7 8 8 8 8 9 8 8 7 7 7 5 3 1 -0 -0 1 -0 1 0 -0 0 0
12 12 12 12 12 12 12 13 13 13 12 12 11 10 10 10 9 9 8 8 7 7 7 6 6 7 7 8 9 9 9 8 8 8 7 6 5 5 2 0 -0 -0 -0 -0 0 0 0 1 1
12 14 13 13 13 13 12 14 14 12 12 12 12 11 11 10 9 9 8 8 7 7 7 6 7 7 8 8 8 8 8 8 9 8 7 6 5 3 2 0 0 -0 -0 -0 0 1 0 1 0
15 15 17 14 13 12 14 16 13 12 13 12 13 13 12 10 10 9 8 8 8 8 7 8 7 8 8 8 9 8 8 9 8 7 7 6 4 3 1 0 0 -0 -0 0 0 1 1 1 1
16 18 16 15 12 13 15 16 13 13 13 13 13 13 12 11 10 9 9 9 9 8 8 8 8 9 9 8 8 8 8 8 7 7 6 6 3 2 1 1 0 0 -0 1 1 1 1 1 2
17 17 16 17 15 15 16 15 13 12 13 14 14 14 13 12 10 10 10 9 9 9 9 8 8 9 9 9 9 8 8 8 8 6 5 4 2 1 1 1 1 0 0 1 1 1 1 2 2
16 17 18 16 15 16 16 16 14 13 13 15 14 14 14 13 12 11 11 10 11 10 10 10 10 10 10 11 11 10 10 10 8 6 5 3 2 1 1 1 1 0 1 1 1 2 2 3 3
16 17 17 15 15 16 16 15 14 14 15 15 14 14 14 13 13 12 11 11 11 11 11 10 10 10 11 10 10 9 9 8 7 6 5 2 2 2 1 1 1 1 1 1 1 2 3 3 3
16 17 17 17 15 15 16 16 16 15 14 14 14 14 14 13 13 13 12 12 12 12 12 10 10 11 11 10 9 9 8 9 7 6 6 3 2 2 1 1 1 1 0 1 1 1 2 4 3
17 15 15 15 18 19 16 20 17 16 16 15 14 14 14 13 13 12 12 13 12 13 12 11 10 11 10 9 10 10 9 11 8 7 6 6 2 3 1 1 1 1 1 1 1 1 2 3 5
16 15 16 16 18 19 18 20 17 17 17 15 15 14 14 13 13 12 12 12 12 13 12 12 11 11 10 9 9 10 11 9 7 6 6 3 3 3 2 2 2 2 1 1 1 2 2 3 4
14 15 16 16 18 23 18 20 19 18 16 16 16 14 13 13 13 13 12 12 13 13 12 12 12 12 10 10 9 9 10 9 8 7 6 4 4 4 3 3 3 2 2 1 2 2 2 3 3
15 17 22 22 23 21 19 21 18 15 15 15 15 15 14 13 13 13 13 13 13 13 12 12 13 12 10 10 10 9 9 8 8 8 8 6 5 4 4 4 4 3 3 3 3 2 2 3 3
17 17 20 23 22 20 20 20 16 16 15 15 15 14 14 14 13 13 13 13 13 13 12 13 13 12 10 10 11 9 8 8 7 7 8 7 6 5 5 4 4 4 3 4 4 2 2 2 3
17 19 16 20 24 22 19 17 15 16 16 15 15 15 14 14 13 13 13 13 13 13 13 13 13 11 10 10 11 10 8 7 8 7 7 8 7 5 5 5 5 4 4 4 3 2 2 2 3
17 16 20 20 24 23 20 18 17 17 16 15 15 15 14 14 14 13 13 13 14 13 13 14 12 11 11 11 11 10 10 9 7 7 7 6 6 5 5 5 5 5 5 5 3 2 2 3 3
19 20 19 17 18 21 23 18 13 14 14 15 15 14 14 14 14 13 13 14 14 14 14 14 12 11 11 10 10 10 11 10 10 9 9 7 7 7 7 7 7 6 5 4 3 3 2 3 3
17 17 17 19 20 21 20 18 13 15 15 15 14 14 14 14 13 13 14 14 15 15 15 14 12 11 11 10 10 10 11 9 9 9 9 9 9 8 8 8 7 6 4 3 3 3 3 3 3